RH
5 6 6 7 8 8 8 10 11 11 10 9 9 8 8 8 8 9 11 11 12 14 14 14 13 12 13 12 13 14 15 13 14 17 23 32 31 32 25 14 12 11 10 8 9
4 5 5 6 6 6 6 6 6 7 8 9 9 9 8 8 8 8 11 9 10 12 15 16 15 14 14 14 14 15 14 15 16 16 15 15 18 17 16 14 12 17 13 10 8
5 5 6 6 6 6 6 6 6 6 6 7 7 8 7 7 8 10 9 8 10 10 14 16 17 16 16 16 16 17 16 18 15 17 17 15 15 17 17 11 16 13 12 11 10
7 8 10 11 11 10 9 8 8 8 8 8 8 8 9 12 12 13 13 11 10 9 12 16 18 19 18 18 18 19 17 19 16 16 16 16 16 16 16 16 14 15 14 13 13
18 19 18 17 17 17 17 16 14 12 11 12 12 13 15 16 15 16 16 17 14 9 11 17 18 20 20 19 21 19 17 17 19 17 16 16 17 24 15 20 16 16 16 15 16
22 17 14 14 16 18 19 19 19 18 18 17 16 15 15 16 16 16 18 18 16 10 13 18 19 19 20 20 22 21 18 16 15 18 19 26 25 26 21 22 19 16 17 17 16
18 25 29 30 29 28 26 26 26 27 28 28 27 26 25 26 27 27 23 14 11 13 12 10 12 14 15 17 21 20 18 15 16 28 29 26 21 18 23 30 26 24 18 17 19
30 27 23 19 13 11 10 10 10 10 15 16 12 12 11 18 24 19 12 16 22 21 18 18 20 16 17 19 21 22 21 15 26 29 30 32 24 20 23 30 28 28 24 24 22
16 11 10 10 10 11 11 11 11 10 9 8 7 7 11 15 16 15 15 19 24 31 32 31 28 23 23 22 25 24 26 30 36 33 45 40 28 22 22 30 30 33 32 25 22
11 12 13 12 11 10 9 9 9 8 8 7 7 8 10 8 8 9 12 17 23 31 34 34 34 35 33 27 32 30 60 60 55 35 46 46 28 25 22 27 29 38 32 30 28
13 15 11 8 7 6 6 8 7 6 6 6 7 8 8 10 13 23 25 25 28 29 32 40 45 39 29 37 56 59 77 64 26 28 38 26 31 27 21 25 36 34 36 34 27
17 14 9 7 6 6 6 6 8 6 6 6 7 10 15 21 20 23 26 28 28 30 35 42 38 42 45 57 72 71 72 54 44 30 34 30 28 24 22 33 35 31 40 38 32
19 13 8 6 5 7 5 6 6 7 6 10 22 24 24 20 20 27 25 29 32 29 40 48 27 35 61 58 49 42 60 52 46 39 37 50 40 23 42 37 33 43 42 36 31
16 11 7 6 6 5 6 6 7 8 7 29 37 28 26 22 25 18 24 36 30 38 48 52 34 34 37 46 53 59 38 44 46 58 63 53 66 28 37 39 43 48 42 33 30
12 10 8 6 6 6 7 8 8 8 29 29 29 29 31 30 18 19 31 44 36 44 58 41 37 43 49 43 48 49 50 55 60 71 71 64 64 38 41 62 53 46 34 22 15
11 10 9 8 8 8 8 8 9 13 21 34 34 33 34 19 17 34 58 64 51 58 57 40 49 63 50 43 39 62 64 59 60 68 84 57 60 49 60 60 52 42 31 20 18
11 10 10 9 9 9 9 10 11 16 26 36 36 28 19 16 37 62 63 56 59 67 61 55 52 50 45 60 59 68 66 82 91 94 87 67 82 62 59 68 54 53 38 33 30
12 12 11 10 10 10 11 11 13 20 21 31 32 18 23 40 54 57 54 47 61 79 83 75 65 50 58 58 54 58 58 60 87 95 85 84 95 91 69 68 61 57 52 48 42
12 12 12 12 12 12 12 14 18 34 40 48 16 22 48 65 54 19 24 54 69 79 78 75 66 62 69 52 63 61 55 54 62 61 78 59 94 99 96 92 75 69 51 48 44
12 12 13 13 14 14 13 20 27 39 32 21 15 30 43 22 13 21 24 64 86 98 96 91 89 67 49 44 42 65 68 71 72 84 79 72 73 88 79 74 83 61 54 54 51
14 14 15 16 16 16 15 16 18 19 18 18 16 20 20 21 31 21 50 72 86 88 82 55 49 54 45 32 33 44 48 66 81 80 90 86 98 96 96 97 97 92 94 83 56
16 16 17 18 17 18 16 16 17 18 18 15 14 19 32 31 24 18 54 63 64 60 54 44 31 44 22 7 11 19 59 68 82 87 94 96 97 97 98 95 95 95 85 88 60
18 19 20 20 19 20 17 18 20 20 22 20 17 18 26 38 52 43 43 66 61 54 53 41 46 38 17 50 66 77 65 77 86 95 90 94 96 96 96 97 95 90 82 60 53
20 21 21 21 22 22 21 21 22 28 35 27 24 39 65 80 72 49 37 29 33 48 40 54 78 64 46 55 64 52 23 55 48 48 51 53 49 72 66 55 62 62 52 44 34
23 24 23 22 21 19 18 20 30 33 41 36 49 78 86 97 84 84 71 49 29 24 39 54 61 67 65 72 71 53 44 36 37 55 51 30 29 34 68 80 87 84 75 68 56
22 21 18 13 13 14 16 34 37 50 52 59 74 88 98 100 100 90 75 54 62 52 55 62 78 69 66 62 79 85 62 64 78 83 82 69 61 86 100 100 92 93 88 81 73
16 12 8 10 11 13 23 46 75 66 65 66 69 93 100 97 100 87 56 44 65 77 62 83 86 97 91 66 64 45 69 92 97 96 92 96 96 97 88 89 89 85 84 80 72
Wind_Speed
16 16 16 16 16 16 16 16 16 16 17 17 18 18 18 17 18 18 9 14 14 14 13 12 12 12 12 12 11 11 10 10 11 11 11 14 17 20 23 22 21 21 18 16 19
17 17 17 17 17 17 17 17 18 18 18 19 19 20 21 21 20 21 14 19 16 14 14 13 13 13 14 13 13 13 15 11 12 13 15 15 18 20 22 20 18 20 18 20 20
18 17 17 18 18 19 19 19 20 20 20 20 21 21 21 21 22 10 24 21 17 16 16 15 14 15 15 16 15 15 15 14 15 16 17 17 17 19 19 16 14 19 18 21 23
18 19 19 20 21 21 21 21 22 22 22 22 22 22 22 22 20 25 21 21 19 20 18 17 16 16 16 18 17 20 16 15 14 14 18 18 19 18 17 16 18 16 17 17 19
20 21 22 23 23 23 23 23 24 23 23 23 24 25 25 24 27 26 23 23 23 22 19 18 18 18 19 19 20 23 18 19 17 18 18 19 16 18 14 16 16 18 19 17 18
24 26 26 25 25 25 25 24 25 25 26 27 27 28 28 29 27 24 27 28 25 19 16 16 18 20 23 22 21 23 23 20 20 17 18 15 17 23 14 18 18 21 20 20 22
24 25 25 25 24 24 24 23 24 23 24 25 26 26 26 27 25 27 24 17 12 12 15 17 21 25 27 24 24 19 24 23 17 13 12 18 17 19 16 18 18 24 24 22 22
25 25 25 24 24 24 24 25 25 23 22 21 24 23 24 21 16 11 9 15 20 21 23 27 29 27 26 26 27 25 26 24 12 12 16 17 26 18 18 17 20 23 20 19 20
25 26 27 28 28 28 27 26 26 25 24 25 24 25 16 12 16 21 26 29 30 30 29 31 30 30 28 27 28 23 21 17 17 14 18 17 28 19 22 20 21 19 16 18 19
28 31 33 32 30 27 26 25 23 22 22 22 20 13 18 24 27 26 24 27 28 28 26 27 29 30 28 27 21 14 14 15 19 18 25 29 37 26 20 22 22 17 15 16 19
31 34 33 30 28 27 25 24 22 18 17 19 23 24 22 23 21 15 13 17 20 23 21 19 24 29 25 22 16 19 22 24 20 19 29 29 31 28 21 22 22 15 16 17 17
33 32 31 29 27 26 25 25 23 21 17 21 18 16 14 14 15 16 15 17 16 18 18 21 27 18 16 16 17 16 22 27 28 22 23 29 33 27 20 20 14 16 16 14 14
32 31 29 27 25 25 25 25 26 27 26 8 6 6 9 12 13 11 19 18 16 18 14 21 17 16 16 17 20 23 28 33 31 27 26 25 29 20 8 8 15 16 14 12 9
31 28 26 26 26 26 26 26 26 24 14 4 4 6 8 12 12 21 19 16 16 18 16 16 11 12 13 22 22 29 28 26 24 18 10 9 7 17 16 18 21 19 14 10 8
30 27 25 23 24 25 24 24 23 20 5 7 7 9 10 13 23 23 16 18 19 18 19 26 23 23 27 31 29 31 24 23 20 18 19 24 13 16 14 25 26 20 12 2 6
28 26 25 26 25 24 23 23 19 8 5 5 10 13 19 27 23 15 14 15 18 19 17 23 19 18 22 23 26 24 24 26 27 25 7 25 19 7 21 34 29 21 13 9 7
27 27 27 26 24 24 23 21 10 5 6 7 11 24 29 28 11 9 10 14 15 16 20 23 24 16 18 14 12 15 13 4 2 2 6 6 12 14 7 29 26 22 16 6 4
27 27 27 27 23 23 22 17 7 9 13 20 22 30 16 15 9 10 16 22 19 16 19 13 13 8 10 11 9 14 13 7 4 2 3 8 6 3 15 25 20 16 11 5 7
27 27 26 23 22 22 20 7 4 10 12 23 27 14 8 11 15 26 17 16 15 13 9 9 11 6 10 20 8 6 14 14 13 19 6 7 6 14 21 22 18 16 7 5 2
26 25 23 19 20 21 13 9 9 14 19 20 17 10 15 25 22 11 8 9 8 7 8 8 20 20 21 16 15 10 13 7 7 3 5 3 7 6 19 19 11 11 5 4 10
25 25 20 21 22 12 11 9 14 16 18 12 15 19 22 21 16 18 7 12 14 14 14 18 16 21 22 21 21 21 18 9 10 10 3 2 3 16 13 10 5 5 6 12 18
24 21 19 21 13 17 13 13 14 16 14 16 15 17 18 17 20 11 9 11 16 21 20 12 13 21 27 22 14 15 14 4 0 5 5 2 4 10 5 7 9 8 16 21 23
26 18 19 16 13 15 15 18 16 17 17 14 10 16 20 17 11 8 12 14 18 20 16 23 6 13 17 3 5 12 4 2 11 4 6 4 3 8 12 15 18 18 20 24 26
25 20 22 13 19 17 17 15 17 16 18 14 19 17 19 18 16 13 27 23 22 22 27 17 17 18 15 14 21 29 31 26 19 13 20 24 25 24 23 22 14 15 18 22 28
25 20 21 18 19 20 21 20 18 21 12 20 12 13 21 25 33 10 16 28 31 25 17 12 16 20 25 27 26 32 36 35 27 25 22 28 14 20 18 10 7 13 19 19 21
21 21 22 21 20 20 20 19 19 20 24 16 17 24 23 20 19 30 32 31 33 31 13 15 20 19 31 15 7 19 20 17 15 12 18 24 20 14 13 16 13 15 21 22 22
24 22 22 21 22 22 21 17 18 22 17 23 26 27 26 25 23 31 27 24 25 27 21 23 12 8 6 11 21 13 4 7 6 7 5 2 4 12 14 18 20 18 22 23 24
Wind_Direction
348 346 342 340 338 335 332 330 328 326 324 323 324 324 326 328 333 335 333 334 319 309 307 304 303 306 303 297 293 286 275 276 275 271 268 270 273 277 282 283 281 283 279 262 256
348 345 343 340 336 332 328 326 324 320 317 317 316 317 319 320 323 322 314 322 316 305 294 296 298 297 297 296 291 279 275 282 280 281 281 281 281 283 277 278 289 289 277 269 263
347 344 342 339 335 331 329 327 322 318 315 314 313 314 316 321 325 326 320 318 309 305 291 288 293 295 296 295 292 279 280 280 283 285 286 296 290 281 289 291 287 280 276 273 276
346 345 340 335 332 330 326 321 321 320 319 316 314 315 318 323 323 320 318 316 307 307 289 284 287 292 292 289 286 283 287 282 291 274 277 287 289 291 287 295 293 295 293 282 275
340 336 331 330 328 324 321 322 318 318 313 313 313 314 313 312 311 313 312 310 304 302 286 284 285 293 291 288 286 287 287 289 293 282 284 279 287 288 298 291 287 291 294 287 282
334 330 329 328 326 322 318 317 311 308 307 307 307 306 306 309 306 303 303 300 295 289 280 282 287 289 286 286 283 282 286 284 285 285 273 282 285 281 299 290 286 287 286 282 283
333 329 329 325 326 324 325 323 316 317 313 312 311 309 308 302 303 302 301 299 292 280 277 280 288 287 285 285 280 279 284 281 280 260 271 297 285 286 300 295 292 289 286 282 283
331 329 331 331 330 327 326 323 322 321 321 319 313 311 309 308 305 300 286 295 291 285 281 282 286 280 277 274 277 280 284 282 265 259 287 296 295 298 303 295 295 294 281 273 279
333 332 329 326 324 321 320 316 314 315 315 312 307 307 305 294 292 292 290 288 285 283 281 283 283 275 271 272 274 273 260 257 258 272 296 293 297 310 297 295 298 296 272 275 281
331 329 328 324 323 323 322 318 319 319 316 311 306 301 300 295 298 300 296 290 289 286 285 280 276 271 266 261 258 266 246 251 264 276 295 292 289 300 293 295 290 278 266 275 286
331 331 329 327 328 327 326 323 328 333 324 313 300 298 296 300 310 320 313 301 300 298 300 284 273 272 283 279 273 267 269 273 272 291 290 284 285 288 287 290 271 242 258 274 289
332 331 327 327 328 328 329 329 328 326 324 312 294 292 294 308 319 324 321 315 313 311 297 281 281 309 274 268 272 274 282 282 288 295 284 290 287 289 296 274 220 228 251 274 288
330 329 327 326 328 328 326 327 329 327 330 315 292 293 311 318 321 328 325 316 316 313 305 281 299 280 279 271 277 278 276 281 285 293 287 293 290 291 243 211 208 227 244 263 279
328 328 327 326 326 326 328 328 328 330 320 302 300 302 310 318 314 325 316 315 311 308 300 286 306 282 272 270 277 283 290 289 284 276 265 268 283 264 246 267 217 224 232 249 299
329 329 327 323 324 324 326 327 327 327 349 298 285 282 294 321 314 320 305 305 303 294 278 269 275 283 277 274 286 277 282 283 276 264 273 268 267 277 246 193 200 202 198 163 19
329 328 327 327 325 325 325 325 325 310 252 263 275 288 301 311 314 304 299 295 299 292 286 294 295 284 293 289 285 282 277 278 269 262 254 260 230 267 199 192 190 185 171 129 79
331 329 329 327 326 325 325 326 315 223 286 270 286 307 316 309 300 278 289 300 295 299 295 297 291 294 295 307 301 274 263 274 291 174 233 304 208 223 229 188 186 182 178 178 253
334 331 329 327 328 325 324 324 247 274 285 286 303 308 299 294 268 263 291 304 292 283 293 301 305 279 260 333 302 285 275 257 281 242 271 304 289 328 182 170 171 176 182 189 255
333 330 328 328 326 326 327 316 277 296 302 311 316 312 268 260 301 305 308 293 289 296 316 304 276 262 268 302 286 277 286 290 273 274 277 236 153 168 175 179 186 187 163 199 322
334 331 329 328 329 330 340 321 292 301 303 309 310 292 295 302 312 310 301 281 290 290 320 293 296 299 299 291 270 271 284 271 250 241 230 227 186 154 171 171 175 163 164 258 338
336 335 332 336 336 343 336 322 311 312 316 314 298 290 292 304 304 314 269 276 282 278 309 313 291 284 287 291 288 284 282 281 296 279 270 305 107 138 130 127 77 231 280 323 334
336 341 335 336 338 339 332 327 319 314 315 310 298 295 294 304 308 302 265 273 297 311 321 322 301 290 297 309 282 268 271 270 316 307 293 267 164 193 217 359 24 360 338 328 329
345 346 344 347 342 341 336 326 318 317 321 314 295 293 292 303 307 283 271 269 285 299 320 313 281 316 318 109 105 143 82 9 344 316 266 343 167 212 347 331 318 324 319 313 314
343 348 346 346 350 341 336 325 316 315 319 322 312 301 298 300 295 289 294 286 283 290 308 297 269 261 261 279 287 291 282 298 302 272 270 266 277 270 293 297 298 296 295 302 304
350 350 350 339 339 336 331 321 315 315 310 319 301 307 322 320 313 298 297 296 299 305 288 282 277 277 275 274 279 282 286 291 290 283 247 268 260 273 292 296 302 308 300 298 301
351 351 343 340 340 332 323 310 315 316 322 326 321 313 312 310 307 311 319 316 308 308 310 281 292 285 293 310 305 299 297 297 284 269 259 258 254 257 271 293 292 281 296 305 308
350 346 347 343 335 329 316 317 321 318 319 314 311 308 308 312 312 313 316 313 308 300 295 290 281 308 287 323 314 302 69 43 60 66 20 69 272 276 286 301 313 309 305 306 307